Hourly Data Report for May 10, 2004

TORONTO CITY
ONTARIO

43°40'00.000" N
79°24'00.000" W
112.50 m
6158355
71508
XTO

Download Data

Hourly Data (May 2004)
Hourly Data Report for May 10, 2004
TIME
LST
Temp Definition
°C
Dew Point Definition
°C
Rel Hum Definition
%
Precip. Amount Definition
mm

Wind Dir Definition
10's deg

Wind Spd Definition
km/h
Visibility Definition
km
Stn Press Definition
kPa
Hmdx Definition


Wind Chill Definition


Weather Definition


00:00 11.0 8.5 85   LegendMM LegendMM LegendMM 100.42     LegendNANA
01:00 10.8 9.3 90   LegendMM LegendMM LegendMM 100.29     LegendNANA
02:00 11.8 11.2 96   LegendMM LegendMM LegendMM 100.13     LegendNANA
03:00 11.6 10.8 95   LegendMM LegendMM LegendMM 100.16     LegendNANA
04:00 9.0 8.3 95   LegendMM LegendMM LegendMM 100.14     LegendNANA
05:00 9.1 8.6 97   LegendMM LegendMM LegendMM 100.14     LegendNANA
06:00 9.7 9.3 97   LegendMM LegendMM LegendMM 100.21     LegendNANA
07:00 10.1 9.8 98   LegendMM LegendMM LegendMM 100.22     LegendNANA
08:00 11.1 10.8 98   LegendMM LegendMM LegendMM 100.25     LegendNANA
09:00 13.2 12.7 97   LegendMM LegendMM LegendMM 100.17     LegendNANA
10:00 15.1 13.9 93   LegendMM LegendMM LegendMM 100.15     LegendNANA
11:00 17.8 14.8 83   LegendMM LegendMM LegendMM 100.08     LegendNANA
12:00 20.2 16.3 78   LegendMM LegendMM LegendMM 100.03 25   LegendNANA
13:00 21.8 16.8 73   LegendMM LegendMM LegendMM 99.96 27   LegendNANA
14:00 22.3 16.1 68   LegendMM LegendMM LegendMM 99.94 27   LegendNANA
15:00 24.3 16.8 63   LegendMM LegendMM LegendMM 99.92 29   LegendNANA
16:00 27.4 15.8 49   LegendMM LegendMM LegendMM 99.92 32   LegendNANA
17:00 27.1 15.9 50   LegendMM LegendMM LegendMM 99.96 32   LegendNANA
18:00 26.6 16.9 55   LegendMM LegendMM LegendMM 99.98 32   LegendNANA
19:00 24.9 16.1 58   LegendMM LegendMM LegendMM 100.00 30   LegendNANA
20:00 21.8 16.1 70   LegendMM LegendMM LegendMM 100.06 26   LegendNANA
21:00 21.8 15.9 69   LegendMM LegendMM LegendMM 100.21 26   LegendNANA
22:00 20.0 17.3 84   LegendMM LegendMM LegendMM 100.17 25   LegendNANA
23:00 19.6 17.3 87   LegendMM LegendMM LegendMM 100.24     LegendNANA

Notes on Data Quality.

Legend

  • E = Estimated
  • M = Missing
  • NA = Not Available*
  • [empty] = Indicates an unobserved value
Date modified: